Location: Chenereilles
(45.4866°N, 4.0790°E)
Time: 05:12:50
(UTC+00:00)

Cosmos 1867 - Pass Details

Date: 12 November 2019
Orbit: 776 x 799 km, 65.0° (Epoch: 13 December)

Event Time Altitude Azimuth Distance (km) Brightness Sun altitude
Rises 17:09:02 0° 207° (SSW) 3,277 7.5 -9.4°
Reaches altitude 10° 17:11:27 10° 206° (SSW) 2,355 6.6 -9.8°
Maximum altitude 17:16:51 73° 122° (ESE) 834 3.6 -10.7°
Drops below altitude 10° 17:22:18 10° 39° (NE) 2,380 5.6 -11.6°
Enters shadow 17:22:39 - 39° (NE) 2,512 5.7 -11.7°
